FW6971 Weather Reports


time (UTC)temp
C
wind
direction
speed
KPH
gust
KPH
rain 1hr
cm
rain 24hr
cm
rain mn
cm
humidity
%
barometer
mb
20260508204530 10 216 9.7 24.1 0.00 0.91 0.00 85 1002.1
20260508203030 8 216 17.7 33.8 0.00 0.91 0.00 83 1002.0
20260508201531 10 231 16.1 27.4 0.00 0.91 0.00 75 1001.4
20260508200031 11 139 1.6 8.0 0.00 0.91 0.00 70 1001.0
20260508194527 11 112 4.8 11.3 0.00 1.85 0.00 69 1000.6
20260508193025 11 88 6.4 11.3 0.00 1.85 0.00 68 1000.6
20260508191536 12 46 6.4 16.1 0.00 1.85 0.00 64 1000.4
20260508190030 12 30 8.0 17.7 0.00 1.85 0.00 64 1000.5
20260508184532 12 51 9.7 16.1 0.00 2.11 0.00 61 1000.4
20260508183028 12 55 8.0 19.3 0.00 2.11 0.00 65 1000.3
20260508181525 12 43 9.7 16.1 0.00 2.11 0.00 66 1000.5
20260508180028 12 5 8.0 12.9 0.00 2.11 0.00 69 1001.0
20260508174530 12 43 4.8 16.1 0.00 2.13 0.00 72 1001.0
20260508173029 12 24 6.4 12.9 0.00 2.13 0.00 73 1001.0
20260508171529 11 10 4.8 14.5 0.00 2.13 0.00 76 1001.0
20260508170026 11 21 6.4 11.3 0.00 2.13 0.00 76 1001.1
20260508164526 10 2 3.2 9.7 0.00 2.13 0.00 79 1001.3
20260508163029 10 37 6.4 12.9 0.00 2.13 0.00 80 1001.2
20260508161530 10 38 8.0 14.5 0.00 2.13 0.00 80 1001.0
20260508160028 10 33 3.2 11.3 0.00 2.13 0.00 81 1001.1
20260508154537 10 18 8.0 14.5 0.00 2.13 0.00 79 1001.2
20260508153025 10 19 8.0 19.3 0.00 2.13 0.00 79 1001.1
20260508151534 10 35 12.9 24.1 0.00 2.13 0.00 78 1000.9
20260508150029 10 42 11.3 17.7 0.00 2.13 0.00 83 1001.0
20260508144529 10 27 9.7 16.1 0.00 2.16 0.00 85 1001.1
20260508143036 9 28 4.8 16.1 0.00 2.16 0.00 87 1001.3
20260508141526 9 25 11.3 20.9 0.00 2.16 0.00 87 1001.4
20260508140035 8 40 6.4 14.5 0.00 2.16 0.00 89 1001.5
20260508134528 9 49 6.4 16.1 0.00 2.16 0.00 90 1001.7
20260508133026 8 30 6.4 14.5 0.00 2.16 0.00 92 1002.0
20260508131528 8 24 4.8 17.7 0.00 2.16 0.00 94 1002.1
20260508130040 8 24 8.0 16.1 0.00 2.16 0.00 96 1001.8
20260508124533 8 26 8.0 14.5 0.00 2.16 0.00 97 1001.8
20260508123035 8 30 6.4 12.9 0.00 2.16 0.00 98 1001.9
20260508121527 7 359 3.2 9.7 0.00 2.16 0.00 99 1001.9
20260508120028 7 31 4.8 9.7 0.00 2.16 0.00 99 1001.9
20260508114528 7 17 6.4 12.9 0.00 2.16 0.00 99 1002.1
20260508113027 6 14 3.2 8.0 0.00 2.16 0.00 99 1001.9
20260508111525 6 352 1.6 9.7 0.00 2.16 0.00 99 1001.9
20260508110031 5 21 4.8 8.0 0.00 2.16 0.00 99 1001.9
20260508104529 5 10 3.2 9.7 0.00 2.16 0.00 99 1002.1
20260508103032 6 352 3.2 8.0 0.00 2.16 0.00 100 1002.2
20260508101528 6 32 1.6 8.0 0.00 2.16 0.00 99 1002.2
20260508100027 5 0 1.6 6.4 0.00 2.16 0.00 100 1002.2
20260508094541 5 32 4.8 9.7 0.00 2.16 0.00 99 1002.2
20260508093028 5 30 4.8 12.9 0.00 2.16 0.00 99 1001.9
20260508091542 6 32 3.2 12.9 0.00 2.16 0.00 100 1002.0
20260508090035 6 36 6.4 16.1 0.00 2.16 0.00 99 1001.9
20260508084525 5 32 4.8 11.3 0.00 2.16 0.00 99 1001.5
20260508083027 6 42 4.8 12.9 0.00 2.16 0.00 99 1001.8
20260508081533 6 51 8.0 12.9 0.00 2.16 0.00 99 1001.5
20260508080028 6 49 4.8 11.3 0.00 2.16 0.00 100 1001.5
20260508074528 7 51 9.7 22.5 0.00 2.16 0.00 100 1001.1
20260508073026 6 38 4.8 9.7 0.00 2.16 0.00 100 1001.1
20260508071531 6 0 0.0 0.0 0.00 2.16 0.00 99 1001.2
20260508070041 5 0 0.0 1.6 0.00 2.16 0.00 99 1001.4
20260508064534 5 0 0.0 0.0 0.00 2.16 0.00 99 1001.1
20260508063030 5 0 0.0 0.0 0.00 2.16 0.00 99 1000.9
20260508061528 4 0 0.0 3.2 0.00 2.16 0.00 99 1001.3
20260508060035 4 0 0.0 6.4 0.00 2.16 0.00 99 1001.0
20260508054532 6 340 1.6 6.4 0.00 2.16 0.00 100 1001.3
20260508053029 6 201 3.2 6.4 0.00 2.16 0.00 100 1001.3
20260508051526 5 0 0.0 0.0 0.00 2.16 0.00 99 1001.0
20260508050029 6 0 0.0 0.0 0.00 2.16 0.00 99 1001.2
20260508044527 6 0 0.0 0.0 0.00 2.16 0.00 99 1001.3
20260508043028 6 0 0.0 0.0 0.00 2.16 0.00 99 1001.3
20260508041528 6 0 0.0 0.0 0.00 2.16 0.00 99 1001.5
20260508040034 6 0 0.0 1.6 0.00 2.16 0.00 99 1001.6
20260508034535 6 252 0.0 6.4 0.00 2.16 0.00 99 1001.9
20260508033029 6 244 1.6 4.8 0.00 2.16 0.00 99 1001.9
20260508031527 6 242 4.8 9.7 0.00 2.16 0.00 99 1002.0
20260508030029 6 229 3.2 9.7 0.00 2.16 0.00 99 1002.3
20260508024528 6 248 4.8 11.3 0.00 2.16 2.16 99 1001.9
20260508023035 6 221 8.0 12.9 0.00 2.16 2.16 99 1001.8
20260508021527 6 236 4.8 12.9 0.00 2.16 2.16 99 1001.9
20260508020028 5 228 6.4 14.5 0.00 2.16 2.16 99 1002.1
20260508014528 5 225 9.7 16.1 0.00 2.16 2.16 99 1002.3
20260508013028 6 201 4.8 11.3 0.00 2.16 2.16 99 1002.2
20260508011529 6 175 3.2 9.7 0.00 2.16 2.16 99 1002.3
20260508010030 6 220 4.8 17.7 0.00 2.16 2.16 99 1002.0
20260508004606 6 200 8.0 19.3 0.00 2.16 2.16 99 1002.4
20260508004532 6 200 8.0 19.3 0.00 2.16 2.16 99 1002.4
20260508003032 6 207 8.0 17.7 0.00 2.16 2.16 99 1002.7
20260508001544 6 209 6.4 14.5 0.00 2.16 2.16 99 1002.7
20260508000027 6 196 6.4 20.9 0.00 2.16 2.16 99 1002.9
20260507234529 6 198 11.3 19.3 0.00 2.16 2.16 99 1003.0
20260507233034 6 195 9.7 22.5 0.00 2.16 2.16 98 1002.8
20260507231531 6 204 11.3 22.5 0.00 2.16 2.16 98 1003.1
20260507230035 6 221 8.0 20.9 0.00 2.16 2.16 98 1003.0
20260507224533 7 219 9.7 19.3 0.03 2.16 2.16 98 1003.1
20260507223027 7 240 6.4 17.7 0.03 2.16 2.16 99 1003.3
20260507221528 7 126 9.7 19.3 0.03 2.16 2.16 99 1003.3
20260507220031 7 217 6.4 17.7 0.13 2.16 2.16 99 1003.7
20260507214530 7 147 8.0 24.1 0.23 2.13 2.13 99 1003.4
20260507213036 7 136 9.7 16.1 0.41 2.13 2.13 99 1002.9
20260507211543 7 165 8.0 20.9 0.58 2.11 2.11 98 1003.8
20260507210028 7 221 8.0 25.7 0.76 2.03 2.03 99 1004.2